Weather in Duong Dong

Vietnam     10°13′24″N   103°57′55″E
temp.,
°C
wind,
m/s
gust,
m/s
humid.,
%
clouds,
%
prec.,
mm/h
press.,
hPa
HPBL,
m
13 august, sat
sat1301:00+26w238342 0.0 1009259
04:00+26wnw2286100 0.0 1009245
07:00+27w2382100 0.0 1010319
10:00+29w346794 0.0 10101012
13:00+30wsw456448 0.0 10091070
16:00+29wsw4467100 0.1 1008935
19:00+27w357831 0.1 1008343
22:00+27w3580100 0.0 1010326
14 august, sun
sun1401:00+26wnw368291 0.0 1008322
04:00+25nw24845 0.0 1008219
07:00+26nw24855 0.0 1009259
10:00+29wnw45705 0.0 1010776
13:00+30w566731 0.0 1009920
16:00+29wnw68695 0.0 1007754
19:00+27wnw58805 0.0 1008543
22:00+27wnw488144 0.0 1010522
15 august, mon
mon1501:00+27wnw4782100 0.0 1009452
04:00+26wnw4883100 0.0 1007457
07:00+27wnw5880100 0.0 1009706
10:00+29wnw6776100 0.6 1010927
13:00+29w797197 0.6 10081061
16:00+29w6974100 0.1 10071107
19:00+27w6982100 0.3 1008738
22:00+27w4784100 0.1 1010516
16 august, tue
tue1601:00+27w488495 0.8 1009487
04:00+27w6108095 0.9 1008662
07:00+27w598087 1.2 1009708
10:00+29w5770100 0.3 10101001
13:00+30w686818 0.3 10081145
16:00+29w68725 0.7 10061022
19:00+27w598361 1.1 1008591
22:00+27wsw4783100 0.8 1009433
17 august, wed
wed1701:00+27w4784100 2.4 1008583
04:00+27w5883100 0.3 1007641
07:00+27w598066 0.9 1009785
10:00+28wnw587398 0.4 1010879
13:00+29w586969 1.1 1008999
16:00+29w587190 0.0 1006915
19:00+27w477794 0.0 1007596
22:00+27w3681100 0.0 1008489